map of THR home
THR - Airport
Location
City:  Tehran, Tehran, Iran
Near (Alt.):Teheran
Name:Mehrabad International Airport
Old (Alt.):Qualeh Morgeh
ICAO:OIII
IATA:THR

Details
Type:Airport (Aerodrome, Airfield)
Use:Public/Civil, Military, International (customs port of entry)
Latitude:3541'21"N (35.689167)
Longitude:5118'48"E (51.313416)
Datum:WGS 1984
Elevation:3962 ft (1208 m)
Variation:4.83E (WMM2015v2 magnetic declination)
0.06 annual change
Runways:3
Longest:13248 × 197 ft (4038 × 60 m), paved

Time
Time Zone:UTC+3:30 (DST+4:30)
Local Time:

Weather
METAR:OIII 041400Z 27012KT 9999 SCT045 07/M05 Q1023 A3022
TAF:OIII 041100Z 0412/0518 28008KT CAVOK
TEMPO 0412/0414 30018KT
BECMG 0501/0503 14006KT 4000 HZ
BECMG 0504/0506 7000
TEMPO 0506/0510 14018KT

Related Locations
Nearby:
Farthest:GMR: 11488 mi / 18487 km
Mangareva [Totegegie], Gambier Islands, PF

Find:

   beyond  
but within

Other Information
Maps:
NOTAMs:
Links:
Sources:

  
  • flag of Iran
  

Sectional Chart

Flight Planning
at skyvector.com

Satellite Image

Google Maps Satellite view

 

Copyright © 2004-2019 Karl L. Swartz. All rights reserved.
The Great Circle Mapper name and logo are trademarks of the Great Circle Mapper.
All other trademarks mentioned herein belong to their respective owners.
Please see credits for attibutions and further copyright information.

  Follow gcmap on Facebook Follow gcmap on Twitter GCmap on LinkedIn

hCard Microformat

Geo Microformat